Beaver, WV

7:00 PM EST on February 23, 2017 (GMT -0500)
Raleigh County Memorial

Weather History for KBKW - January, 2011

Change the Weather History Date:

Thursday, January 13, 2011

  Actual Average Record
Temperature  
Mean Temperature 16 °F 31 °F  
Max Temperature 21 °F 39 °F 72 °F (1932)
Min Temperature 10 °F 23 °F -4 °F (1962)
Degree Days  
Heating Degree Days 49 34  
Month to date heating degree days 511 442  
Since 1 July heating degree days 2730 2535  
Cooling Degree Days 0 0  
Month to date cooling degree days 0 0  
Year to date cooling degree days 0 0  
Moisture  
Dew Point 12 °F    
Average Humidity 81    
Maximum Humidity 88    
Minimum Humidity 73    
Precipitation  
Precipitation 0.02 in 0.09 in 1.01 in (1968)
Month to date precipitation 0.66 1.19  
Year to date precipitation 0.66 1.19  
Snow  
Snow 2.50 in - - ()
Month to date snowfall 18.3  
Since 1 September snowfall 65.6  
Snow Depth 9.00 in    
Sea Level Pressure  
Sea Level Pressure 30.37 in    
Wind  
Wind Speed 8 mph (WNW)    
Max Wind Speed 17 mph    
Max Gust Speed 24 mph    
Visibility 3 miles    
Events Snow    
T = Trace of Precipitation, MM = Missing Value Source: NWS Daily Summary

Daily Weather History Graph

Daily Weather History Graph

Search for Another Location

Airport or City:

Trip Planner

Search our weather history database for the weather conditions in past years. The results will help you decide how hot, cold, wet, or windy it might be!

Date:

Astronomy

Jan. 13, 2011 Rise Set
Actual Time 7:39 AM EST 5:27 PM EST
Civil Twilight 7:10 AM EST 5:55 PM EST
Nautical Twilight 6:38 AM EST 6:28 PM EST
Astronomical Twilight 6:06 AM EST 6:59 PM EST
Moon 12:07 PM EST (1/13) 1:37 AM EST (1/13)
Length of Visible Light 10h 45m
Length of Day
9h 47m
First Quarter, 62% of the Moon is Illuminated
Jan 13
First Quarter
Jan 19
Full
Jan 26
Last Quarter
Feb 2
New
Feb 11
First Quarter

Hourly Weather History & Observations

Time (EST) Temp. Windchill Dew Point Humidity Pressure Visibility Wind Dir Wind Speed Gust Speed Precip Events Conditions
12:21 AM 17.6 °F 5.0 °F 12.2 °F 79% 30.20 in 1.5 mi WNW 11.5 mph - 0.00 in Snow Light Snow
12:37 AM 17.6 °F 7.3 °F 12.2 °F 79% 30.20 in 1.2 mi WNW 8.1 mph - 0.00 in Snow Light Snow
12:51 AM 17.1 °F 3.0 °F 12.9 °F 84% 30.36 in 1.2 mi WNW 13.8 mph 18.4 mph 0.00 in Snow Light Snow
1:30 AM 17.6 °F 4.3 °F 12.2 °F 79% 30.21 in 1.8 mi WNW 12.7 mph - 0.01 in Snow Light Snow
1:41 AM 17.6 °F 5.7 °F 12.2 °F 79% 30.21 in 2.0 mi WNW 10.4 mph 19.6 mph 0.01 in Snow Light Snow
1:51 AM 17.1 °F 5.0 °F 12.9 °F 84% 30.37 in 2.0 mi WNW 10.4 mph - 0.01 in Snow Light Snow
2:07 AM 17.6 °F 5.0 °F 12.2 °F 79% 30.23 in 2.0 mi WNW 11.5 mph - 0.00 in Snow Light Snow
2:51 AM 17.1 °F 3.6 °F 12.9 °F 84% 30.40 in 2.0 mi WNW 12.7 mph 18.4 mph 0.00 in Snow Light Snow
3:23 AM 17.6 °F 4.3 °F 12.2 °F 79% 30.26 in 1.8 mi NW 12.7 mph - 0.00 in Snow Light Snow
3:51 AM 17.1 °F 3.6 °F 12.9 °F 84% 30.41 in 2.0 mi WNW 12.7 mph 20.7 mph 0.00 in Snow Light Snow
4:06 AM 17.6 °F 5.0 °F 12.2 °F 79% 30.26 in 1.8 mi WNW 11.5 mph - 0.00 in Snow Light Snow
4:14 AM 17.6 °F 5.0 °F 12.2 °F 79% 30.26 in 1.8 mi NW 11.5 mph - 0.00 in Snow Light Snow
4:26 AM 17.6 °F 6.4 °F 12.2 °F 79% 30.26 in 2.0 mi WNW 9.2 mph - 0.00 in Snow Light Snow
4:34 AM 17.6 °F 5.0 °F 12.2 °F 79% 30.26 in 1.8 mi WNW 11.5 mph - 0.00 in Snow Light Snow
4:51 AM 17.1 °F 5.8 °F 12.9 °F 84% 30.42 in 1.8 mi WNW 9.2 mph - 0.00 in Snow Light Snow
5:19 AM 17.6 °F 3.7 °F 12.2 °F 79% 30.26 in 2.0 mi WNW 13.8 mph 20.7 mph 0.00 in Snow Light Snow
5:34 AM 17.6 °F 4.3 °F 12.2 °F 79% 30.27 in 1.8 mi NW 12.7 mph 20.7 mph 0.00 in Snow Light Snow
5:51 AM 17.1 °F 2.5 °F 12.9 °F 84% 30.43 in 2.5 mi WNW 15.0 mph 18.4 mph 0.00 in Snow Light Snow
5:59 AM 17.6 °F 3.7 °F 12.2 °F 79% 30.28 in 2.5 mi WNW 13.8 mph 21.9 mph 0.00 in Snow Light Snow
6:15 AM 17.6 °F 6.4 °F 12.2 °F 79% 30.29 in 2.5 mi WNW 9.2 mph - 0.00 in Snow Light Snow
6:27 AM 17.6 °F 5.7 °F 12.2 °F 79% 30.29 in 3.0 mi WNW 10.4 mph 20.7 mph 0.00 in Snow Light Snow
6:51 AM 17.1 °F 3.0 °F 12.9 °F 84% 30.45 in 2.5 mi NW 13.8 mph 19.6 mph 0.00 in Snow Light Snow
6:58 AM 17.6 °F 3.7 °F 12.2 °F 79% 30.29 in 3.0 mi WNW 13.8 mph - 0.00 in Snow Light Snow
7:09 AM 17.6 °F 4.3 °F 12.2 °F 79% 30.30 in 6.0 mi WNW 12.7 mph - 0.00 in   Haze
7:18 AM 17.6 °F 5.7 °F 12.2 °F 79% 30.31 in 3.0 mi NW 10.4 mph 17.3 mph 0.00 in Snow Light Snow
7:51 AM 17.1 °F 5.0 °F 12.9 °F 84% 30.48 in 2.0 mi NW 10.4 mph - 0.00 in Snow Light Snow
7:56 AM 17.6 °F 5.7 °F 12.2 °F 79% 30.33 in 1.8 mi NW 10.4 mph - 0.00 in Snow Light Snow
8:05 AM 17.6 °F 5.7 °F 12.2 °F 79% 30.34 in 2.5 mi NW 10.4 mph - 0.00 in Snow Light Snow
8:19 AM 17.6 °F 5.0 °F 12.2 °F 79% 30.34 in 1.8 mi NW 11.5 mph - 0.00 in Snow Light Snow
8:31 AM 17.6 °F 7.3 °F 12.2 °F 79% 30.35 in 1.2 mi NW 8.1 mph - 0.00 in Snow Light Snow
8:51 AM 17.1 °F 7.6 °F 12.9 °F 84% 30.51 in 1.2 mi WNW 6.9 mph - 0.00 in Snow Light Snow
9:44 AM 17.6 °F 5.7 °F 12.2 °F 79% 30.37 in 1.2 mi NW 10.4 mph - 0.01 in Snow Light Snow
9:51 AM 17.1 °F 3.6 °F 12.0 °F 81% 30.53 in 1.5 mi NW 12.7 mph - 0.01 in Snow Light Snow
10:10 AM 17.6 °F 4.3 °F 12.2 °F 79% 30.38 in 2.0 mi WNW 12.7 mph - 0.00 in Snow Light Snow
10:18 AM 17.6 °F 5.0 °F 12.2 °F 79% 30.38 in 1.8 mi WNW 11.5 mph - 0.00 in Snow Light Snow
10:26 AM 17.6 °F 5.0 °F 12.2 °F 79% 30.38 in 1.5 mi NW 11.5 mph - 0.00 in Snow Light Snow
10:48 AM 17.6 °F 4.3 °F 12.2 °F 79% 30.38 in 1.5 mi WNW 12.7 mph 20.7 mph 0.00 in Snow Light Snow
10:51 AM 18.0 °F 6.1 °F 12.0 °F 78% 30.54 in 1.5 mi NW 10.4 mph 18.4 mph 0.00 in Snow Light Snow
11:21 AM 19.4 °F 6.6 °F 12.2 °F 74% 30.37 in 1.8 mi WNW 12.7 mph - 0.00 in Snow Light Snow
11:51 AM 19.4 °F 9.5 °F 12.2 °F 74% 30.37 in 1.5 mi NW 8.1 mph - N/A Snow Light Snow
12:09 PM 19.4 °F 7.2 °F 12.2 °F 74% 30.36 in 2.0 mi WNW 11.5 mph - 0.00 in Snow Light Snow
12:17 PM 19.4 °F 10.4 °F 12.2 °F 74% 30.36 in 1.2 mi WNW 6.9 mph - 0.00 in Snow Light Snow
12:51 PM 19.9 °F 7.9 °F 12.0 °F 71% 30.49 in 3.0 mi NW 11.5 mph - 0.00 in Snow Light Snow
1:51 PM 19.9 °F 13.4 °F 12.0 °F 71% 30.48 in 5.0 mi Variable 4.6 mph - 0.00 in Snow Light Snow
2:51 PM 19.9 °F 9.3 °F 12.0 °F 71% 30.49 in 2.5 mi NW 9.2 mph - 0.00 in Snow Light Snow
3:34 PM 19.4 °F 10.4 °F 14.0 °F 80% 30.34 in 1.5 mi NW 6.9 mph - 0.00 in Snow Light Snow
3:46 PM 19.4 °F 9.5 °F 12.2 °F 74% 30.34 in 3.0 mi WNW 8.1 mph - 0.00 in Snow Light Snow
3:51 PM 19.9 °F 12.1 °F 12.9 °F 74% 30.50 in 3.0 mi WNW 5.8 mph - 0.00 in Snow Light Snow
4:17 PM 19.4 °F 10.4 °F 12.2 °F 74% 30.34 in 1.8 mi WNW 6.9 mph - 0.00 in Snow Light Snow
4:42 PM 19.4 °F 8.6 °F 14.0 °F 80% 30.35 in 2.0 mi NNW 9.2 mph - 0.00 in Snow Light Snow
4:45 PM 19.4 °F 10.4 °F 12.2 °F 74% 30.34 in 3.0 mi NNW 6.9 mph - 0.00 in Snow Light Snow
4:51 PM 19.0 °F 10.0 °F 12.9 °F 77% 30.50 in 8.0 mi NNW 6.9 mph - 0.00 in   Overcast
5:10 PM 19.4 °F 7.9 °F 12.2 °F 74% 30.35 in 1.8 mi WNW 10.4 mph - 0.00 in Snow Light Snow
5:21 PM 19.4 °F 11.5 °F 12.2 °F 74% 30.35 in 3.0 mi NW 5.8 mph - 0.00 in Snow Light Snow
5:29 PM 19.4 °F 11.5 °F 12.2 °F 74% 30.35 in 5.0 mi WNW 5.8 mph - 0.00 in   Haze
5:51 PM 18.0 °F 9.8 °F 12.9 °F 81% 30.51 in 8.0 mi WNW 5.8 mph - 0.00 in Snow Light Snow
6:37 PM 17.6 °F 9.3 °F 12.2 °F 79% 30.35 in 7.0 mi NW 5.8 mph - 0.00 in Snow Light Snow
6:51 PM 18.0 °F 12.7 °F 12.9 °F 81% 30.50 in 10.0 mi NW 3.5 mph - 0.00 in   Overcast
7:51 PM 16.0 °F - 12.9 °F 88% 30.48 in 10.0 mi Calm Calm - N/A   Mostly Cloudy
8:01 PM 15.8 °F 10.2 °F 12.2 °F 86% 30.32 in 10.0 mi WNW 3.5 mph - N/A   Partly Cloudy
8:51 PM 15.1 °F 9.4 °F 12.0 °F 88% 30.48 in 8.0 mi West 3.5 mph - N/A   Clear
9:51 PM 14.0 °F 8.2 °F 10.0 °F 84% 30.48 in 8.0 mi WSW 3.5 mph - N/A   Clear
10:11 PM 12.2 °F - 10.4 °F 92% 30.32 in 7.0 mi Calm Calm - N/A   Scattered Clouds
10:51 PM 14.0 °F 6.5 °F 10.9 °F 88% 30.48 in 10.0 mi WSW 4.6 mph - N/A   Clear
11:51 PM 12.0 °F 4.1 °F 9.0 °F 88% 30.46 in 8.0 mi WSW 4.6 mph - N/A   Clear